Regional Weather Roundup
Issued by NWS

Home | Current Version | Previous Version | Graphics & Text | Print | Product List | Glossary Off
Versions: 1 2 3 4 5 6 7 8 9 10 11 12 13 14 15 16 17 18 19 20 21 22 23 24 25 26 27 28 29 30 31 32 33 34 35 36 37 38 39 40 41 42 43 44 45 46 47 48 49 50

000
ASUS45 KBOI 251210
RWRID
WEATHER ROUNDUP FOR IDAHO
NATIONAL WEATHER SERVICE BOISE ID
600 AM MDT FRI JUL 25 2014

NOTE: "FAIR" INDICATES FEW OR NO CLOUDS BELOW 12000 FEET
WITH NO SIGNIFICANT WEATHER AND/OR OBSTRUCTIONS TO VISIBILITY

IDZ012-014-251300-
SOUTHWEST IDAHO


CITY           SKY/WX    TMP DP  RH WIND       PRES   REMARKS
BOISE          CLEAR     53  40  61 S3        30.08R
CALDWELL       CLEAR     55  36  47 W7        30.09R
MOUNTAIN HOME  CLEAR     49  34  55 NE6       30.09R
$$

IDZ016-017-251300-
SOUTHCENTRAL IDAHO


CITY           SKY/WX    TMP DP  RH WIND       PRES   REMARKS
BURLEY         PTCLDY    48  35  60 W6        30.10S
JEROME         PTCLDY    52  31  44 S8        30.11R
TWIN FALLS     PTCLDY    56  25  30 S14       30.11S
$$

IDZ019>023-251300-
SOUTHEAST IDAHO


CITY           SKY/WX    TMP DP  RH WIND       PRES   REMARKS
IDAHO FALLS    CLEAR     48  31  51 S7        30.13R
POCATELLO      CLEAR     52  26  36 SW9       30.14R
REXBURG        CLEAR     43  34  70 N5        30.13R
$$

IDZ006-010-011-018-031-032-251300-
CENTRAL IDAHO MOUNTAINS


CITY           SKY/WX    TMP DP  RH WIND       PRES   REMARKS
MCCALL         CLEAR     39  34  82 CALM      30.14R
HAILEY         CLEAR     43  28  56 NW10      30.17R
STANLEY          N/A     28  22  78 CALM      30.23R
SALMON         PTCLDY    45  34  65 CALM      30.11S
CHALLIS        CLEAR     44  25  47 CALM      30.14S
$$

IDZ002-004-006-007-026-251300-
NORTHERN IDAHO


CITY           SKY/WX    TMP DP  RH WIND       PRES   REMARKS
LEWISTON       CLEAR     56  44  64 CALM      30.09S
LOWELL           N/A     49  44  83 CALM      30.16R
COEUR D`ALENE  CLOUDY    52  46  82 W5        30.06R
MULLAN PASS    CLOUDY    44  39  82 VRB5      30.14R
$$



USA.gov is the U.S. government's official web portal to all federal, state and local government web resources and services.